Wray, CO

6:59 AM MST on February 26, 2017 (GMT -0700)
Wray Municipal Airport

Weather History for K2V5 - April, 2014

Change the Weather History Date:

Sunday, April 20, 2014

  Actual Average (KSYF) Record (KSYF)
Temperature  
Mean Temperature 58 °F -  
Max Temperature 74 °F 64 °F 73 °F (2014)
Min Temperature 41 °F 37 °F 29 °F (2015)
Degree Days  
Heating Degree Days 8    
Growing Degree Days 8 (Base 50)    
Moisture  
Dew Point 45 °F    
Average Humidity 70    
Maximum Humidity 100    
Minimum Humidity 34    
Precipitation  
Precipitation 0.03 in - - ()
Sea Level Pressure  
Sea Level Pressure 30.00 in    
Wind  
Wind Speed 3 mph (WNW)    
Max Wind Speed 10 mph    
Max Gust Speed 34 mph    
Visibility 10 miles    
Events Rain    
Averages and records for this station are not official NWS values.
T = Trace of Precipitation, MM = Missing Value Source: NWS Daily Summary

Daily Weather History Graph

Daily Weather History Graph

Search for Another Location

Airport or City:

Trip Planner

Search our weather history database for the weather conditions in past years. The results will help you decide how hot, cold, wet, or windy it might be!

Date:

Astronomy

Apr. 20, 2014 Rise Set
Actual Time 6:03 AM MDT 7:32 PM MDT
Civil Twilight 5:35 AM MDT 8:01 PM MDT
Nautical Twilight 5:00 AM MDT 8:35 PM MDT
Astronomical Twilight 4:24 AM MDT 9:12 PM MDT
Moon 12:14 AM MDT (4/20) 10:26 AM MDT (4/20)
Length of Visible Light 14h 26m
Length of Day
13h 29m
Waning Gibbous, 68% of the Moon is Illuminated
Apr 20
Waning Gibbous
Apr 22
Last Quarter
Apr 29
New
May 6
First Quarter
May 14
Full

Hourly Weather History & Observations

Time (MDT) Temp. Windchill Dew Point Humidity Pressure Visibility Wind Dir Wind Speed Gust Speed Precip Events Conditions
12:15 AM 51.6 °F - 43.0 °F 72% 30.02 in 10.0 mi Calm Calm - N/A   Clear
12:35 AM 45.3 °F 44.0 °F 40.6 °F 84% 30.02 in 10.0 mi WNW 3.5 mph - N/A   Clear
12:55 AM 45.7 °F 41.5 °F 42.3 °F 88% 30.02 in 10.0 mi NW 8.1 mph - N/A   Clear
1:15 AM 46.2 °F 42.2 °F 42.3 °F 86% 30.02 in 10.0 mi NW 8.1 mph - N/A   Clear
1:55 AM 44.2 °F 41.0 °F 41.4 °F 90% 30.02 in 10.0 mi WNW 5.8 mph - N/A   Clear
2:15 AM 43.7 °F - 41.4 °F 91% 30.01 in 10.0 mi Calm Calm - N/A   Clear
2:35 AM 42.8 °F - 41.0 °F 93% 30.01 in 10.0 mi Calm Calm - N/A   Clear
2:55 AM 42.8 °F 41.1 °F 41.0 °F 93% 30.01 in 10.0 mi West 3.5 mph - N/A   Clear
3:15 AM 42.3 °F 39.4 °F 40.8 °F 95% 30.01 in 10.0 mi West 4.6 mph - N/A   Clear
3:35 AM 42.3 °F 40.5 °F 40.6 °F 94% 30.01 in 10.0 mi SW 3.5 mph - N/A   Clear
3:55 AM 42.3 °F 39.4 °F 40.6 °F 94% 30.01 in 10.0 mi SW 4.6 mph - N/A   Clear
4:15 AM 41.9 °F 39.0 °F 41.0 °F 97% 30.01 in 10.0 mi WSW 4.6 mph - N/A   Clear
4:35 AM 41.9 °F 39.0 °F 41.4 °F 98% 30.01 in 10.0 mi WSW 4.6 mph - N/A   Clear
4:55 AM 42.1 °F - 41.0 °F 96% 30.01 in 10.0 mi Calm Calm - N/A   Clear
5:15 AM 42.1 °F 40.2 °F 40.3 °F 93% 30.00 in 10.0 mi West 3.5 mph - N/A   Clear
5:35 AM 41.4 °F 39.4 °F 41.0 °F 99% 30.00 in 10.0 mi WSW 3.5 mph - N/A   Clear
5:55 AM 41.2 °F - 41.2 °F 100% 30.01 in 10.0 mi Calm Calm - N/A   Clear
6:15 AM 41.0 °F 39.0 °F 41.0 °F 100% 30.01 in 10.0 mi SW 3.5 mph - N/A   Clear
6:35 AM - - - N/A% 30.01 in 10.0 mi WSW 4.6 mph - N/A   Clear
6:55 AM - - - N/A% 30.01 in 10.0 mi WSW 4.6 mph - N/A   Clear
7:15 AM 43.2 °F - 43.2 °F 100% 30.02 in 10.0 mi Calm Calm - N/A   Clear
7:35 AM 45.9 °F 44.6 °F 45.9 °F 100% 30.02 in 10.0 mi NW 3.5 mph - N/A   Clear
7:55 AM 47.7 °F - 44.1 °F 87% 30.03 in 10.0 mi NW 3.5 mph - N/A   Clear
8:15 AM 48.9 °F - 44.6 °F 85% 30.03 in 10.0 mi Calm Calm - N/A   Clear
8:35 AM 50.4 °F - 45.3 °F 83% 30.03 in 10.0 mi North 3.5 mph - N/A   Clear
8:55 AM 51.8 °F - 45.5 °F 79% 30.03 in 10.0 mi Calm Calm - N/A   Clear
9:15 AM 53.8 °F - 46.4 °F 76% 30.03 in 10.0 mi Calm Calm - N/A   Clear
9:35 AM 55.2 °F - 47.1 °F 74% 30.03 in 10.0 mi Calm Calm - N/A   Clear
9:55 AM 56.8 °F - 48.0 °F 72% 30.03 in 10.0 mi NW 3.5 mph - N/A   Scattered Clouds
10:15 AM 58.8 °F - 48.4 °F 68% 30.04 in 10.0 mi North - - N/A   Mostly Cloudy
10:35 AM 59.7 °F - 48.7 °F 67% 30.04 in 10.0 mi Calm Calm - N/A   Overcast
10:55 AM 60.8 °F - 49.3 °F 66% 30.03 in 10.0 mi NNE 5.8 mph - N/A   Mostly Cloudy
11:15 AM 61.5 °F - 49.3 °F 64% 30.03 in 10.0 mi Calm Calm - N/A   Overcast
11:35 AM 61.7 °F - 49.5 °F 64% 30.03 in 10.0 mi Calm Calm - N/A   Overcast
11:55 AM 60.1 °F - 52.7 °F 77% 30.01 in 7.0 mi North 5.8 mph - 0.03 in Rain Light Rain
12:15 PM 61.0 °F - 53.1 °F 75% 30.01 in 10.0 mi North 10.4 mph 26.5 mph N/A Rain Light Rain
12:35 PM 62.2 °F - 53.2 °F 72% 30.01 in 10.0 mi North 5.8 mph - N/A   Overcast
12:55 PM 63.3 °F - 52.7 °F 68% 30.00 in 10.0 mi NNE 4.6 mph - N/A   Overcast
1:15 PM 64.6 °F - 51.8 °F 63% 30.00 in 10.0 mi NNE 4.6 mph 34.5 mph N/A   Overcast
1:35 PM 66.0 °F - 52.3 °F 61% 30.00 in 10.0 mi East 5.8 mph - N/A   Scattered Clouds
1:55 PM 67.1 °F - 52.5 °F 59% 29.99 in 10.0 mi ENE 6.9 mph - N/A   Clear
2:15 PM 68.9 °F - 50.0 °F 51% 29.99 in 10.0 mi East 8.1 mph - N/A   Clear
2:35 PM 68.9 °F - 50.7 °F 52% 29.99 in 10.0 mi NNE 4.6 mph - N/A   Scattered Clouds
2:55 PM 69.1 °F - 48.7 °F 48% 29.98 in 10.0 mi North - - N/A   Clear
3:15 PM 69.8 °F - 47.8 °F 46% 29.98 in 10.0 mi ENE 3.5 mph - N/A   Clear
3:35 PM 70.7 °F - 46.8 °F 42% 29.96 in 10.0 mi Calm Calm - N/A   Clear
4:15 PM 72.9 °F - 46.6 °F 39% 29.95 in 10.0 mi NNE 4.6 mph - N/A   Clear
4:35 PM 74.1 °F - 45.1 °F 35% 29.94 in 10.0 mi Calm Calm - N/A   Clear
4:55 PM 73.6 °F - 43.5 °F 34% 29.94 in 10.0 mi Calm Calm - N/A   Clear
5:15 PM 73.6 °F - 44.1 °F 35% 29.94 in 10.0 mi ENE 3.5 mph - N/A   Clear
5:35 PM 73.6 °F - 44.1 °F 35% 29.94 in 10.0 mi Calm Calm - N/A   Clear
5:55 PM 73.4 °F - 44.1 °F 35% 29.94 in 10.0 mi Calm Calm - N/A   Clear
6:15 PM 73.6 °F - 43.5 °F 34% 29.94 in 10.0 mi Calm Calm - N/A   Clear
6:35 PM 72.5 °F - 44.2 °F 36% 29.94 in 10.0 mi Calm Calm - N/A   Clear
6:55 PM 70.3 °F - 46.2 °F 42% 29.94 in 10.0 mi ESE 3.5 mph - N/A   Clear
7:15 PM 69.1 °F - 45.9 °F 43% 29.94 in 10.0 mi Calm Calm - N/A   Clear
7:35 PM 67.8 °F - 45.5 °F 45% 29.95 in 10.0 mi Calm Calm - N/A   Clear
7:55 PM 66.6 °F - 45.9 °F 47% 29.96 in 10.0 mi Calm Calm - N/A   Clear
8:15 PM 64.6 °F - 46.0 °F 51% 29.96 in 10.0 mi Calm Calm - N/A   Clear
8:35 PM 61.9 °F - 46.4 °F 57% 29.97 in 10.0 mi Calm Calm - N/A   Clear
9:15 PM 57.4 °F - 46.0 °F 66% 30.00 in 10.0 mi Calm Calm - N/A   Scattered Clouds
9:35 PM 54.9 °F - 45.9 °F 72% 30.00 in 10.0 mi WSW 4.6 mph - N/A   Scattered Clouds
9:55 PM 54.9 °F - 45.9 °F 72% 30.01 in 10.0 mi West 5.8 mph - N/A   Scattered Clouds
10:15 PM 54.1 °F - 45.5 °F 73% 30.01 in 10.0 mi SW 4.6 mph - N/A   Scattered Clouds
10:35 PM 52.2 °F - 45.3 °F 78% 30.00 in 10.0 mi WSW 4.6 mph - N/A   Clear
10:55 PM 51.3 °F - 45.0 °F 79% 30.00 in 1.2 mi West 6.9 mph - N/A   Haze
11:15 PM 52.0 °F - 44.8 °F 76% 30.00 in 7.0 mi West 4.6 mph - N/A   Clear
11:35 PM 49.3 °F - 43.7 °F 81% 30.01 in 1.2 mi Calm Calm - N/A   Haze
11:55 PM 46.9 °F - 42.8 °F 86% 30.02 in 10.0 mi SE 3.5 mph - N/A   Clear